Location: Newark
(43.6583°N, 1.6617°E)
Time: 17:24:15
(UTC+00:00)

Transit 4A - Pass Details

Date: 29 August 2019
Orbit: 866 x 978 km, 66.8° (Epoch: 15 October)

Event Time Altitude Azimuth Distance (km) Brightness Sun altitude
Rises 02:01:39 0° 324° (NW) 3,620 11.2 -29.5°
Reaches altitude 10° 02:04:18 10° 319° (NW) 2,655 10.4 -29.2°
Enters shadow 02:07:14 28° 304° (NW) 1,687 9.2 -28.9°
